KE9LZ-9 Weather Reports


time (UTC)temp
C
wind
direction
speed
KPH
gust
KPH
rain 1hr
cm
rain 24hr
cm
rain mn
cm
humidity
%
barometer
mb
20260505093004 2 308 1.6 4.8 0.00 0.00 0.00 62 1003.3
20260505092004 2 306 1.6 3.2 0.00 0.00 0.00 62 1003.3
20260505091004 2 292 1.6 8.0 0.00 0.00 0.00 61 1003.2
20260505090003 2 271 1.6 3.2 0.00 0.00 0.00 60 1003.2
20260505085004 2 278 1.6 4.8 0.00 0.00 0.00 59 1002.9
20260505084004 3 317 1.6 3.2 0.00 0.00 0.00 59 1002.9
20260505083003 3 308 1.6 3.2 0.00 0.00 0.00 56 1002.8
20260505082003 3 349 1.6 1.6 0.00 0.00 0.00 55 1002.9
20260505080004 5 292 1.6 4.8 0.00 0.00 0.00 51 1002.7
20260505075003 5 314 0.0 4.8 0.00 0.00 0.00 51 1002.8
20260505074004 5 305 1.6 8.0 0.00 0.00 0.00 50 1002.7
20260505073004 5 293 3.2 4.8 0.00 0.00 0.00 50 1002.7
20260505072004 5 24 1.6 4.8 0.00 0.00 0.00 51 1002.8
20260505071004 5 299 1.6 4.8 0.00 0.00 0.00 49 1002.9
20260505070004 5 308 4.8 9.7 0.00 0.00 0.00 49 1002.9
20260505065003 5 304 4.8 9.7 0.00 0.00 0.00 49 1002.8
20260505064004 5 342 3.2 14.5 0.00 0.00 0.00 49 1002.7
20260505063004 6 334 4.8 14.5 0.00 0.00 0.00 48 1002.7
20260505061004 6 294 3.2 8.0 0.00 0.00 0.00 49 1002.8
20260505060004 6 278 1.6 11.3 0.00 0.00 0.00 48 1002.6
20260505055004 6 279 6.4 22.5 0.00 0.00 0.00 47 1002.5
20260505054004 6 265 4.8 24.1 0.00 0.00 0.00 47 1002.5
20260505053004 7 296 9.7 24.1 0.00 0.00 0.00 46 1002.4
20260505052003 7 319 4.8 16.1 0.00 0.00 0.00 48 1002.4
20260505051004 7 275 8.0 12.9 0.00 0.00 0.00 50 1002.1
20260505041003 8 17 4.8 20.9 0.00 0.00 0.00 51 1001.0
20260505040005 8 343 4.8 19.3 0.00 0.00 0.00 50 1000.5
20260505035004 8 4 1.6 8.0 0.00 0.00 0.00 49 1000.2
20260505034004 8 310 4.8 11.3 0.00 0.00 0.00 48 1000.1
20260505031004 9 338 3.2 19.3 0.00 0.00 0.00 49 999.9
20260505030004 9 342 3.2 11.3 0.00 0.00 0.00 48 999.8
20260505024004 10 0 1.6 9.7 0.00 0.00 0.00 48 999.8
20260505023004 10 86 3.2 16.1 0.00 0.00 0.00 47 999.3
20260505022003 10 332 4.8 19.3 0.00 0.00 0.00 48 999.3
20260505021004 11 351 3.2 16.1 0.00 0.00 0.00 47 999.1
20260505020004 11 329 4.8 19.3 0.00 0.00 0.00 46 998.8
20260505015004 11 16 3.2 14.5 0.00 0.00 0.00 46 998.3
20260505013004 12 343 8.0 16.1 0.00 0.00 0.00 44 997.9
20260505012004 13 6 3.2 11.3 0.00 0.00 0.00 44 997.7
20260505011004 13 341 8.0 11.3 0.00 0.00 0.00 43 997.4
20260505004003 16 329 3.2 25.7 0.00 0.00 0.00 38 996.3
20260505002004 16 309 8.0 16.1 0.00 0.00 0.00 35 995.7
20260505001003 17 321 8.0 37.0 0.00 0.00 0.00 35 995.5
20260505000004 17 321 8.0 24.1 0.00 0.00 0.00 34 995.5
20260504235003 17 270 11.3 22.5 0.00 0.00 0.00 33 995.5
20260504234004 17 307 8.0 24.1 0.00 0.00 0.00 33 995.4
20260504233004 18 267 14.5 27.4 0.00 0.00 0.00 32 995.2
20260504231004 18 318 11.3 27.4 0.00 0.00 0.00 30 995.0
20260504230004 19 327 9.7 25.7 0.00 0.00 0.00 29 994.9
20260504225004 18 284 12.9 40.2 0.00 0.00 0.00 30 995.1
20260504221004 20 289 6.4 22.5 0.00 0.00 0.00 29 994.4
20260504220004 21 278 11.3 32.2 0.00 0.00 0.00 26 994.3
20260504215004 20 257 6.4 20.9 0.00 0.00 0.00 27 994.1
20260504214003 20 278 8.0 33.8 0.00 0.00 0.00 27 994.0
20260504213004 20 283 14.5 27.4 0.00 0.00 0.00 26 993.8
20260504212004 21 17 6.4 29.0 0.00 0.03 0.00 25 993.4
20260504211004 21 278 9.7 24.1 0.00 0.03 0.00 24 993.4
20260504210004 21 277 14.5 32.2 0.00 0.03 0.00 27 993.4
20260504205004 21 248 11.3 32.2 0.00 0.03 0.00 27 993.0
20260504204004 21 282 8.0 35.4 0.00 0.03 0.00 28 993.1
20260504203004 21 284 9.7 35.4 0.00 0.03 0.00 29 993.1
20260504202004 21 258 9.7 27.4 0.00 0.03 0.00 26 993.1
20260504201004 21 260 16.1 38.6 0.00 0.03 0.00 25 993.1
20260504200004 21 266 19.3 41.8 0.00 0.03 0.00 24 993.3
20260504195004 22 259 16.1 35.4 0.00 0.03 0.00 24 993.0
20260504194004 22 249 14.5 41.8 0.00 0.03 0.00 25 992.9
20260504193005 22 265 9.7 37.0 0.00 0.03 0.00 30 992.8
20260504185004 22 263 16.1 38.6 0.00 0.03 0.00 32 992.4
20260504184004 22 305 9.7 46.7 0.00 0.03 0.00 33 992.6
20260504183003 22 273 9.7 25.7 0.00 0.03 0.00 35 992.5
20260504182003 22 259 11.3 35.4 0.00 0.03 0.00 35 992.4
20260504181004 22 282 16.1 40.2 0.00 0.03 0.00 34 992.4
20260504180004 22 258 14.5 35.4 0.00 0.03 0.00 35 992.2
20260504175003 21 261 19.3 35.4 0.00 0.03 0.00 36 992.3
20260504174004 21 263 9.7 33.8 0.00 0.03 0.00 36 992.5
20260504173004 22 259 11.3 37.0 0.00 0.03 0.00 36 992.5
20260504172004 21 282 12.9 32.2 0.00 0.03 0.00 37 992.6
20260504171004 21 259 14.5 32.2 0.00 0.03 0.00 36 992.6
20260504151004 19 250 9.7 27.4 0.00 0.03 0.00 38 992.6
20260504141004 14 255 8.0 16.1 0.00 0.03 0.00 49 994.2